Espace membre
ImprimablePdf
Challenges > Kust Criterium - De Panne, 22/11/2009, BEL - De LOTTO Panne Beach Endurance
Liste des rapports > 54km - Classement
Recherche: Page: [1] 2 3 4 5 6
1175 Entrées
 
Les réclamations ne sont plus acceptées, les résultats sont considérés comme définitifs.
Catégorie
PosNrNomAgeIOCTempsTkmMoy.RangNomLocalité
1.9COMMEYNE Davy29BEL1:44:301:57 31.011eliOTEGEM
2.1BERCKMANS Nico40BEL1:44:411:57 30.951masBALEN
3.2VAN HOOVELS Kevin24BEL1:44:491:57 30.912eliBETEKOM
4.4VERMEULEN Nicolas25BEL1:44:591:57 30.863eliLOCHRISTI
5.3RONDELEZ Bjorn33BEL1:45:181:57 30.774eliKOEKELARE
6.5HIMPENS Maarten24BEL1:45:201:58 30.765eliVEURNE
7.16HERTSENS Kris40BEL1:46:111:58 30.522masSINT NIKLAAS
8.7BOUCHER David29BEL1:46:141:59 30.506eli
9.66SCHEIRLINCKX Bert35BEL1:46:161:59 30.497eli
10.20CHAMON Thomas20BEL1:47:031:59 30.278eliDE PANNE
11.24VAN HECKE Bart24BEL1:47:082:00 30.249eliKALKEN
12.12MULKENS Mike30BEL1:47:162:00 30.2110eliHAMONT ACHEL
13.10VERVECKEN Bert40BEL1:47:462:00 30.073masHERENTALS
14.26BEYENS Yoeri31BEL1:47:512:00 30.0511eliBALEN
15.18BAERT Luc40BEL1:47:532:00 30.044masZELE
16.282BATS Didier16BEL1:47:572:00 30.021junBEGIJNENDIJK
17.14HENDERIECKX Kris32BEL1:48:092:01 29.9612eliBELSELE
18.62VERSTRAETE Peter35BEL1:48:452:01 29.8013eliPAAL
19.224ENNEKENS Stijn25BEL1:48:512:01 29.7714eliKWAADMECHELEN
20.38VAN GREMBERGEN Kendric24BEL1:48:582:02 29.7415eliHERZELE
21.15HOREMANS Tom30BEL1:49:012:02 29.7216eliOUD TURNHOUT
22.37ART Quentin19BEL1:49:022:02 29.7217eliSOMBREFFE
23.174PENNE Stijn26BEL1:49:032:02 29.7118eliGERAARDSBERGEN
24.13PATTYN Bart39BEL1:49:042:02 29.7119eliZILLEBEKE
25.1177DECOUTTERE Jonas23BEL1:49:062:02 29.7020eliHULSHOUT
26.65CRAEGHS Maarten17BEL1:50:002:03 29.462junLOMMEL
27.23VANLAERE Kenny28BEL1:50:262:03 29.3421eliBEERNEM
28.177DIELS Kurt33BEL1:50:262:03 29.3422eliVORSELAAR
29.157RYCKAERT Johan33BEL1:50:342:03 29.3123eliSIJSELE
30.22VANSIELEGHEM Lander21BEL1:50:412:03 29.2724eliBREDENE
31.29VERBOVEN Bert31BEL1:50:442:04 29.2625eliWESTERLO
32.30VASSEUR Cedric39FRA1:50:512:04 29.2326eliLILLE
33.27HOEKS Tom26BEL1:51:062:04 29.1627eliLOMMEL
34.140DUPON Frederik37BEL1:51:142:04 29.1328eliNIEUWPOORT
35.60DALLE Dany44BEL1:51:192:04 29.115masBLANKENBERGE
36.202SLEECKX Danny38BEL1:51:562:05 28.9529eliMALLE
37.214MEYVIS Vincent20BEL1:52:042:05 28.9130eliWESTMALLE
38.373WERCKX Gerry38BEL1:52:432:06 28.7531eli
39.109VANMOLECOT Steven30BEL1:53:112:06 28.6332eliBREDENE
40.117HUVELLE Benjamin21FRA1:53:262:07 28.5633eliPONT SAMBRE
41.49CODDENS Peter32BEL1:53:282:07 28.5634eliHEULE
42.354DE VRIES Wim28BEL1:54:012:07 28.4235eliWIEKEVORST
43.17MASSAER Joris27BEL1:54:212:08 28.3436eliPEPINGEN
44.257TAMSIN Kenny22BEL1:54:342:08 28.2837eliBRUGGE
45.175VAN DE VELDE Valentijn18BEL1:54:372:08 28.273junLEMBEKE
46.59SABBE Jonas23BEL1:54:392:08 28.2638eliLEFFINGE
47.44BOETENS Mathias18BEL1:54:452:08 28.244junDEINZE
48.31LINGIER Niek38BEL1:54:492:08 28.2239eliOOSTENDE
49.881COUSSEMENT Jakob21BEL1:54:512:08 28.2140eliWANNEGEM LEDE
50.34T'JAECKX Kevin31BEL1:54:542:08 28.2041eliNIEUWPOORT
51.217VANDEROSTYNE Davy36BEL1:54:562:08 28.1942eliOOSTENDE
52.861VANDEN Bon Jurgen30BEL1:54:592:08 28.1843eliOOSTENDE
53.40BERTEUILLE Nicolas21BEL1:55:042:08 28.1644eliHAVINNES
54.1261BOGAERTS Erwin41BEL1:55:052:08 28.166masLOMMEL
55.981VERSLYPE Jeroen29BEL1:55:062:08 28.1545eliOOSTENDE
56.33NIJS Tim30BEL1:55:132:09 28.1246eliLOMMEL
57.99DE MUNTER Alain43BEL1:55:222:09 28.097masHULDENBERG
58.43VAN DE VELDE Jan41BEL1:55:322:09 28.058masBREDENE
59.173VANLAERE Joost48BEL1:55:342:09 28.049masOOSTENDE
60.54ROSKAM Andy35BEL1:55:432:09 28.0047eliPUURS
61.36VAES Stefan41BEL1:55:442:09 28.0010masZONHOVEN
62.453DELHEYE Henri31BEL1:55:492:09 27.9848eliOOSTKERKE
63.103BASTIN Raphael30BEL1:56:032:09 27.9249eliHOTTON
64.21DEWILDE Wouter30BEL1:56:062:09 27.9150eliTORHOUT
65.1093DE BRUYN Johan40BEL1:56:122:10 27.8911masZELE
66.107DEPOORTER Yves41BEL1:56:142:10 27.8812masKNOKKE HEIST
67.210VERMEYLEN Jozeph61BEL1:56:182:10 27.8613masBEKKEVOORT
68.211HAID Steve29BEL1:56:222:10 27.8451eliTRAZEGNIES
69.362VERBERCKMOES Christoph19BEL1:56:362:10 27.7952eliEVERSELE
70.146VERTESSEN Johnny43BEL1:56:382:10 27.7814masRILLAAR
71.127JANSSENS Steven29BEL1:56:392:10 27.7853eliWESTMEERBEEK
72.216DE BAETS Bjorn32BEL1:56:422:10 27.7654eliMALDEGEM
73.1094MEYS Kris32BEL1:56:452:10 27.7555eliHAMME
74.114VANDENBOGAERDE Robin21BEL1:56:502:10 27.7456eliBREDENE
75.148SMET Gert36BEL1:56:532:10 27.7257eliBAZEL
76.227VAN DE SCHANS Dirk30BEL1:56:552:10 27.7158eliLOMMEL
77.150POMBEREU Jimmy35BEL1:56:562:10 27.7159eliZOMERGEM
78.28WYNSBERGHE Michel50BEL1:56:572:10 27.7115masOOSTENDE
79.25EMBRECHTS Paul33BEL1:57:012:11 27.6960eliKASTERLEE
80.42DEFEVERE Laurent21BEL1:57:022:11 27.6961eliDE PANNE
81.158HAERYNCK David26BEL1:57:042:11 27.6862eliSTADEN
82.244OSAER David29BEL1:57:062:11 27.6763eliGISTEL
83.943STUBBE Michiel27BEL1:57:132:11 27.6464eliWENDUINE
84.100VAN WOENSEL Alain35BEL1:57:142:11 27.6465eliBOOISCHOT
85.901VAN DER STOCKT David38BEL1:57:152:11 27.6366eliGERAARDSBERGEN
86.1017DEBOUTTE Emmanuel35BEL1:57:172:11 27.6367eliWERVIK
87.1311GOOSSENS Dirk37BEL1:57:182:11 27.6268eliNEVELE
88.93VERHELST Kris39BEL1:57:192:11 27.6269eliKORTEMARK
89.154MICHELS Andy31BEL1:57:202:11 27.6170eliKRUISHOUTEM
90.48HERREGODTS Stijn25BEL1:57:222:11 27.6171eliZOTTEGEM
91.207CAUBERGH Rafael34BEL1:57:232:11 27.6072eliLANAKEN
92.151REMORY Stijn23BEL1:57:272:11 27.5973eliVLIERZELE
93.147TOLLENAERE Wim40BEL1:57:312:11 27.5716masOPWIJK
94.979WILMSSEN Patrik48BEL1:57:322:11 27.5717masRANST
95.266SMOLDERS Davy35BEL1:57:342:11 27.5674eliRAVELS
96.275VANNEUVILLE Stan15BEL1:57:362:11 27.555junOOSTDUINKERKE
97.1206DE RYCKE Thomas28BEL1:57:372:11 27.5575eliSINT DENIJS WESTREM
98.691LEYS Dries31BEL1:57:382:11 27.5476eliBRUGGE
99.352CLOCHET Maarten22BEL1:57:412:11 27.5477eliKORTRIJK
100.301NIJS Davy32BEL1:57:452:11 27.5278eliLOMMEL
101.855DECROO Philippe34BEL1:57:492:11 27.5079eliADINKERKE
102.287NOLLET Stefaan38BEL1:57:502:11 27.5080eliBEERNEM
103.235DECLERCK Rado29BEL1:57:502:11 27.5081eliOOSTENDE
104.283LEFEVRE Jasper24BEL1:57:512:11 27.4982eliNIEUWPOORT
105.229VANHUELE Frank38BEL1:57:532:11 27.4983eliOUDENBURG
106.56DEPOORTER Dries22BEL1:57:582:12 27.4784eliGISTEL
107.501FVERBEKE Grace25BEL1:58:012:12 27.461damAARTRIJKE
108.98DE WEGHE Sam22BEL1:58:022:12 27.4585eliPEPINGEN
109.349SCHEIRE Ruben18BEL1:58:062:12 27.446junBEERVELDE
110.298JANSSEN Guy33BEL1:58:452:12 27.2986eliMEEUWEN
111.292SEYNAEVE Gino36BEL1:58:562:13 27.2587eliBREDENE
112.183PILLEN Jelle27BEL1:59:032:13 27.2288eliOOSTDUINKERKE
113.310T'JAECKX Tim24BEL1:59:162:13 27.1789eliNIEUWPOORT
114.39SABBE Nico25BEL1:59:222:13 27.1590eliASSEBROEK
115.185PYLYSER Dieter27BEL1:59:242:13 27.1491eliMIDDELKERKE
116.996DE BRUYNE Danny43BEL1:59:372:13 27.0918masWAARSCHOOT
117.46VANMAEKELBERGH Pascal43BEL1:59:402:13 27.0819masWINGENE
118.57GEENTJENS Rudi54BEL1:59:432:14 27.0620masHERENTALS
119.64BEULLENS Gert42BEL1:59:482:14 27.0521masO.L.V. WAVER
120.1105VAN OLMEN Jef34BEL1:59:512:14 27.0492eliOLEN
121.330TNEYT JOACHIM Vlerick Bart29BEL1:59:562:14 27.021tGENT
122.280BORRA Jules15BEL2:00:242:14 26.917junKOEKELARE
123.205DHIEDT Bram17BEL2:00:342:14 26.888junETTELGEM
124.750DECLERCQ Geert32BEL2:00:382:15 26.8693eliOLEN
125.1259DEMETS Ward24BEL2:00:422:15 26.8594eliZINGEM
126.306LOETERS Laurens15BEL2:00:482:15 26.829junHOUTHULST
127.717VANDENDAELE Thomas28BEL2:00:492:15 26.8295eliLEKE
128.331MARRON Antonio43BEL2:00:502:15 26.8122masNIEUWPOORT
129.318VINCENTZ David36FRA2:00:522:15 26.8196eliDUNKERQUE
130.252HERINGUEZ Damien27FRA2:00:552:15 26.8097eliHAILLICOURT
131.248LABEEUW Lode38BEL2:00:592:15 26.7898eliHOOGLEDE
132.293BLOEMMEN Rudy51BEL2:01:012:15 26.7823masHERSELT
133.113BARTELS Victor49BEL2:01:082:15 26.7524masWEELDE
134.294HUYGHE Peter44BEL2:01:092:15 26.7425masWESTKERKE
135.143VANSLEMBROUCK Elie32BEL2:01:102:15 26.7499eliEERNEGEM
136.63MOORTGAT Peter37BEL2:01:132:15 26.73100eliBORSBEKE
137.61STOCKMAN Jan41BEL2:01:172:15 26.7226masKNOKKE HEIST
138.134VLEURINCK Kevin29BEL2:01:332:16 26.66101eliZELZATE
139.411DE WYNGAERT Filip29BEL2:01:482:16 26.60102eliTREMELO
140.153VAN DEN BRANDE Jarkko35BEL2:01:552:16 26.58103eliVORSELAAR
141.609COOLS Aaron23BEL2:01:562:16 26.57104eliWAASMUNSTER
142.1012KEMPENAERS Stefan32BEL2:01:562:16 26.57105eliBALEN
143.271XXX XxxBEL2:02:002:16 26.561xxxNIEUWPOORT
144.379KOWALCZYK Guy46BEL2:02:132:16 26.5127masOOSTDUINKERKE
145.833DUPONT Frederiek26BEL2:02:232:16 26.48106eliMAARKEDAL
146.8BERTRAND Jonathan21BEL2:02:322:17 26.44107eliPERWEZ
147.142GLORIE Kevin23BEL2:02:362:17 26.43108eliIEPER
148.32DELVART Bernard64FRA2:02:372:17 26.4328masISBERQUES
149.297LIMOUSIN Frederic28FRA2:02:392:17 26.42109eliGRANDE SYNTHE
150.242BROECKX Pieter18BEL2:02:462:17 26.3910junZWIJNDRECHT
151.384CHARLES Michael36BEL2:02:482:17 26.39110eliJODOIGNE
152.806VAN DER CRUYSSEN Tom31BEL2:02:492:17 26.38111eliOOSTAKKER
153.212LAHOU Rudy43BEL2:02:512:17 26.3829masBUDINGEN
154.431WAEGENAER Francis39BEL2:02:522:17 26.37112eliVILVOORDE
155.200GEERTS Domien21BEL2:02:572:17 26.35113eliBREENDONK
156.220WIJNANTS Michael21BEL2:03:002:17 26.34114eliTERVUREN
157.233DILISSEN Raf39BEL2:03:012:17 26.34115eliEKSEL
158.160VOLDERS Denis43BEL2:03:032:17 26.3330masAVERBODE
159.713DE SMYTER Dominique37BEL2:03:052:17 26.33116eliKRUISHOUTEM
160.115DELHAYE Rudy21FRA2:03:052:17 26.32117eliWARGNIES LE PETIT
161.256DE WEVER Jos60BEL2:03:062:17 26.3231masITEGEM
162.789VERVISCH Stefaan47BEL2:03:082:17 26.3232masOOSTAKKER
163.162COREMANS Jerom16BEL2:03:082:17 26.3111junAARSCHOT
164.377DERNONCOURT Mathieu36FRA2:03:112:17 26.31118eliMARCK
165.161COREMANS Tom40BEL2:03:162:17 26.2933masAARSCHOT
166.625KRAMAR Tony34BEL2:03:182:17 26.28119eliBREDENE
167.193SEYNAVE Vincent31BEL2:03:222:18 26.27120eliWERVIK
168.238VANNESTE Francis40BEL2:03:232:18 26.2634masROESELARE
169.194GERAERTS Dimitry36BEL2:03:242:18 26.26121eliLANAKEN
170.125JORDENS Marnik37BEL2:03:282:18 26.24122eliRILLAAR
171.104CAUCHIES Francois24BEL2:03:292:18 26.24123eliDOUR
172.94WAUTERS Brett26BEL2:03:292:18 26.24124eliDILBEEK
173.108BUYL Kevin26BEL2:03:302:18 26.24125eliASSE
174.1239SOENEN Filip48BEL2:03:342:18 26.2235masROESELARE
175.1195POPEYE Pieter34BEL2:03:362:18 26.21126eliOOSTDUINKERKE
176.670SNOECK Jose43BEL2:03:382:18 26.2136masSINT AMANDSBERG
177.449WERNER Stefan41BEL2:03:382:18 26.2137masKOKSIJDE
178.324OBEIN Yannick34FRA2:03:402:18 26.20127eliUXEM
179.1098LAGROU Daan16BEL2:03:432:18 26.1912junKOKSIJDE
180.365IMMOUNI Abdel Aziz37FRA2:03:432:18 26.19128eliBLERIOT PLAGE
181.190LELEU Christian26FRA2:03:482:18 26.17129eliVIOLAINES
182.503FKOENEN Merel25NLD2:03:532:18 26.162damDEN HELDER
183.363COOPMAN Frederic27BEL2:04:002:18 26.13130eliSLEIDINGE
184.136ICKX Mario25BEL2:04:062:18 26.11131eliNIJLEN
185.337DE HEER Arjan33NLD2:04:062:18 26.11132eliNX DEN HELDER
186.644BACKERS Wesley31BEL2:04:282:19 26.03133eliOUDENBURG
187.992VERHELST Nico34BEL2:04:322:19 26.02134eliKORTEMARK
188.249STROO Luc46BEL2:04:372:19 26.0038masZELZATE
189.192PAUWELS Tom38BEL2:04:382:19 26.00135eliBAAL
190.58DELROT Bastien23FRA2:04:482:19 25.96136eliLILLE
191.962NIJS Johan48BEL2:04:532:19 25.9539masBELSELE
192.92CLAUSSE Olivier26BEL2:04:552:19 25.94137eliCHAUMONT GISTOUS
193.989VAN DEN BROECK Bart32BEL2:05:042:19 25.91138eliMORKHOVEN
194.469BOGAERTS Sven25BEL2:05:042:19 25.91139eliBALEN-WEZEL
195.1291PEETERS Bart28BEL2:05:062:19 25.90140eliMOL
196.315DE PRETER Kevin31BEL2:05:092:20 25.89141eliBREDENE
197.355CLARYSSE Nico35BEL2:05:152:20 25.87142eliBELLEM
198.1157DE SMYTER Frederik35BEL2:05:172:20 25.86143eliOUDENAARDE - WELDEN
199.300SLEGERS Maarten29BEL2:05:202:20 25.85144eliKONTICH
200.680TOUSSEIN Jan29BEL2:05:232:20 25.84145eliBRUGGE
DNF: abandon; DSQ: disqualifié; Vitesse en km/h